Find Starlink 32354

NORAD ID: 61932 Int'l Des: 2024-207 Owner: SPXS Country: US Constellation: starlink operational
LEOCIRCULAR

Current View

Loading 3D Globe...

About Starlink 32354

Starlink 32354 (NORAD 61932) is a starlink constellation satellite (v2 mini) launched Nov 11, 2024 by SPXS of US. It operates in LEO, CIRCULAR orbit with a mass of 730.00 kg.

Upcoming Passes

Passes for default location (London). Set your location on the main map for personalized predictions.

Altitude History

Loading altitude history...

Two-Line Element Set

1 61932U 24207W 26226.04385784 .00008815 00000-0 32950-3 0 9997
2 61932 43.0020 116.8654 0001771 266.6855 93.3794 15.27578208 99230
Epoch: Aug 14, 2026 • Age: 18 hours

Current Status

Altitude 493.1 km
Apogee / Perigee N/A
Velocity 7.62 km/s
Sub-Earth Point -37.83°S, 94.59°E
Launch Date Nov 11, 2024
Age 1.7 years
Type internet

Technical Details

Classification Payload
Mass 730.00 kg
Dry Mass 700.00 kg
Total Mass 730.00 kg
Length 0.30 m
Diameter 4.10 m
Span 29.00 m
Shape Box + pan
Manufacturer SPXS
Bus Type Starlink V2M
Phase Status In Orbit
Owner/State SPXS/US

Most Searched